Theta_e
314 314 314 314 314 314 315 317 318 316 317 317 316 317 315 314 313 314 313 313 312 309 307 308 306 304 303 303 303 303 302 302 297 291 291 290 289 288 286 285 285 284 284
308 310 311 310 309 308 307 307 308 304 305 306 310 310 308 307 308 309 308 307 307 305 303 302 301 299 299 299 299 297 298 295 296 289 287 287 286 285 284 283 284 285 282
306 308 306 306 305 303 301 300 300 299 299 299 300 303 303 303 304 304 305 304 303 302 299 298 297 297 294 293 293 292 291 289 288 285 283 284 283 283 281 282 281 280 282
304 304 303 301 301 300 298 298 297 297 296 296 298 299 299 299 296 296 297 297 296 295 295 295 294 294 292 291 289 287 286 284 283 282 281 282 282 282 280 279 278 277 277
301 301 299 298 299 298 297 296 295 295 294 294 294 294 294 295 293 292 292 292 291 290 289 290 290 289 289 289 286 284 285 282 281 281 281 281 281 280 280 279 278 276 275
300 298 297 297 295 294 294 292 292 291 291 290 290 290 290 289 293 293 291 290 289 287 286 286 287 286 288 289 289 289 287 284 280 281 280 281 281 281 280 277 276 270 269
295 293 292 291 292 292 291 290 289 289 288 288 287 287 286 289 292 292 290 288 287 286 286 285 285 285 285 286 289 290 288 289 287 284 281 281 281 281 280 275 274 273 271
290 290 288 289 289 289 289 288 287 286 285 283 283 284 284 285 292 290 288 284 283 283 283 284 284 283 284 284 283 283 282 282 282 283 283 282 281 281 279 277 274 271 270
289 289 288 288 286 285 286 285 281 281 280 279 280 279 281 282 290 289 285 283 283 283 283 283 283 283 286 287 282 280 280 280 283 284 283 284 284 283 280 274 264 263 262
289 289 287 285 286 284 283 281 279 277 280 282 282 277 278 279 290 289 285 282 280 281 282 282 283 283 287 287 282 279 277 278 279 276 278 281 282 280 281 276 272 262 261
286 285 284 283 283 282 279 277 281 278 278 279 281 281 278 278 283 289 287 282 280 279 280 279 281 286 287 288 287 280 279 279 279 274 272 273 274 274 274 274 274 269 261
284 283 280 279 281 280 279 275 277 278 276 275 279 279 279 276 281 288 288 285 284 277 278 279 280 286 287 287 286 285 285 283 270 267 267 270 272 272 272 272 271 271 272
282 280 278 277 278 278 278 277 276 275 276 275 276 276 277 277 277 287 287 287 286 279 279 281 283 285 286 285 286 285 279 271 268 267 270 272 271 272 271 269 270 270 268
280 278 277 277 274 272 275 276 278 276 274 274 272 272 271 273 274 275 277 277 282 281 281 278 282 283 284 281 276 280 273 271 271 270 269 270 270 268 268 268 264 265 262
279 277 275 276 275 273 274 273 275 273 275 271 270 272 271 269 274 279 277 273 273 276 268 269 270 270 272 272 271 270 269 269 268 267 267 268 268 268 268 267 265 262 263
277 276 276 275 274 274 274 273 282 282 284 284 283 277 273 281 284 285 285 285 284 283 271 267 268 271 273 273 271 271 270 269 269 268 268 268 269 269 268 266 265 265 265
276 274 274 274 274 273 272 274 273 275 283 284 284 284 284 284 284 284 285 285 285 284 279 277 275 273 274 272 272 270 271 270 271 269 269 270 269 269 268 267 267 266 265
274 273 274 272 272 271 271 270 269 269 269 272 279 280 283 284 284 284 285 284 276 279 281 280 278 277 276 275 274 272 272 270 269 270 270 269 269 269 267 266 267 266 266
273 272 272 271 270 270 270 270 269 269 270 267 268 273 272 279 281 283 284 280 279 279 279 280 280 279 277 276 274 272 272 272 271 270 269 269 268 268 267 268 267 267 267
270 271 271 271 270 269 269 269 269 271 271 269 268 264 264 266 268 269 269 269 270 271 275 278 278 279 279 277 274 273 273 272 272 270 270 270 269 268 267 267 267 266 266
269 269 269 269 268 268 270 270 272 271 270 270 269 269 277 272 273 272 272 273 273 274 275 276 277 277 276 272 272 273 272 272 271 271 269 269 269 267 267 267 267 266 266
268 268 269 269 268 269 270 271 269 270 270 270 269 270 275 270 269 268 266 266 267 269 272 273 272 273 273 272 271 271 271 271 271 270 269 268 268 267 266 266 265 265 265
267 267 266 266 267 269 269 268 267 269 268 266 266 267 267 265 263 263 262 263 265 267 267 264 264 265 264 264 266 268 269 269 270 269 269 267 267 266 265 265 265 264 264
266 265 266 266 267 267 266 265 265 266 265 264 262 261 261 260 260 261 262 261 260 261 262 260 260 261 260 260 262 262 263 267 268 268 267 267 267 265 265 264 264 263 263
264 264 263 264 264 264 264 262 261 259 260 262 259 258 259 259 258 257 258 257 257 257 259 260 260 260 259 259 260 260 260 263 263 264 265 264 265 264 265 264 263 263 262
261 261 261 261 260 258 257 257 256 257 258 258 258 258 257 257 258 257 257 257 257 257 258 258 259 259 258 259 257 261 264 266 265 263 263 264 264 264 263 262 261 261 261
Wind_Speed
11 9 9 8 7 7 7 6 7 6 5 5 5 5 5 4 3 3 3 3 5 5 4 5 5 3 2 2 3 1 2 2 2 1 2 3 3 4 3 2 1 1 1
8 8 9 8 7 7 6 6 5 7 6 6 5 5 4 5 3 3 4 4 5 6 5 5 5 2 4 2 3 3 2 2 3 4 2 2 2 3 3 3 2 1 1
8 9 8 8 7 7 7 7 6 6 6 6 5 5 5 5 5 5 5 5 4 3 4 4 5 5 4 2 2 3 2 2 3 4 3 1 1 1 2 1 1 1 2
8 9 9 8 8 8 7 7 6 6 6 6 5 5 4 3 2 2 3 4 4 4 4 4 5 5 6 5 4 4 3 3 2 3 2 3 2 1 2 2 1 0 1
8 8 8 8 8 8 7 7 7 6 6 6 6 4 4 4 3 4 4 5 5 5 4 4 4 4 6 6 4 5 5 3 2 2 2 2 2 2 3 2 2 1 2
10 9 8 9 8 8 7 6 6 6 5 5 5 5 5 3 6 7 7 5 5 6 6 5 4 5 7 8 7 7 5 5 3 3 2 3 4 3 3 3 2 1 1
8 7 8 8 8 7 7 6 6 6 5 5 5 5 5 4 8 9 9 5 5 5 5 5 4 3 5 6 8 8 5 3 2 4 4 5 4 5 4 3 3 2 3
8 8 8 8 8 7 7 6 5 4 6 5 4 5 5 4 8 10 9 6 5 6 6 6 6 5 5 6 5 4 3 1 1 1 3 3 2 4 4 3 4 2 2
10 10 10 9 9 8 8 7 4 4 3 3 3 4 5 3 9 10 9 5 5 4 4 5 6 5 9 10 5 4 2 2 2 2 3 5 7 9 7 5 1 4 3
12 11 9 9 10 9 8 7 3 3 4 5 4 2 4 4 9 11 7 3 5 4 3 4 8 6 10 11 4 4 4 4 3 1 0 3 5 4 7 3 4 3 2
8 9 8 8 9 8 7 3 7 5 6 5 5 3 3 2 4 10 11 3 4 3 4 2 1 10 10 11 10 5 5 1 6 3 1 1 1 1 1 1 3 3 3
9 9 8 7 7 7 8 4 6 7 6 5 6 3 1 2 5 9 8 6 7 5 4 2 3 10 11 11 8 8 9 7 3 2 2 3 3 3 2 2 2 2 2
10 9 7 7 7 8 9 7 5 5 5 4 4 4 3 2 2 5 6 6 6 2 2 5 7 9 11 10 13 10 5 3 3 3 4 4 3 3 3 2 2 2 3
11 10 8 8 6 3 3 3 5 5 4 3 3 2 2 1 3 2 1 1 6 2 3 2 5 7 9 6 3 6 3 3 4 3 2 1 1 1 3 3 2 1 1
11 9 6 5 6 5 3 2 3 2 4 4 3 3 3 3 4 7 6 3 4 5 4 2 1 0 1 2 1 1 0 1 2 2 3 3 3 2 3 3 2 2 4
11 7 6 6 4 4 4 4 4 5 6 5 7 6 3 4 4 8 11 12 10 9 2 2 2 1 3 2 2 2 2 4 4 4 4 5 6 6 6 3 3 5 7
10 9 6 6 6 6 3 4 5 4 3 3 3 1 3 4 4 5 7 9 10 9 4 5 4 4 5 4 4 4 6 5 5 5 6 7 6 7 6 7 7 7 8
9 9 7 5 5 5 5 4 4 3 2 0 6 5 4 5 6 6 8 7 1 4 2 4 4 4 5 6 6 6 6 4 5 6 7 7 7 7 7 8 8 9 9
9 7 6 5 4 5 4 4 4 4 4 1 3 4 6 8 7 6 6 1 3 5 5 6 6 5 5 6 6 6 6 6 6 6 6 7 7 7 8 8 8 11 11
7 9 7 5 5 4 3 4 3 4 3 3 2 0 2 3 2 2 2 1 2 2 2 3 3 4 5 6 6 6 6 6 7 6 7 6 6 7 8 8 8 9 9
6 5 6 4 5 4 4 3 3 3 2 3 1 1 3 1 1 1 2 2 2 2 2 2 3 3 3 3 4 5 6 6 6 6 6 7 7 7 7 8 8 7 8
6 5 5 4 3 4 4 3 3 3 3 2 3 3 8 3 3 1 2 2 3 2 3 4 4 5 5 5 3 4 4 5 4 5 6 7 6 7 6 6 7 8 8
6 6 5 3 3 5 4 4 3 3 2 3 2 2 2 1 2 3 2 3 3 4 5 3 3 3 2 2 2 3 6 6 6 4 7 5 6 6 7 8 7 7 7
6 5 5 4 3 4 4 3 3 3 3 2 1 1 1 1 2 3 2 2 2 3 3 3 3 4 4 3 3 4 3 5 6 6 7 7 6 6 7 8 8 9 8
5 5 5 4 3 3 3 3 3 3 2 1 1 2 2 2 3 3 2 2 2 2 3 4 3 4 5 7 7 8 8 10 8 7 6 7 9 9 10 6 7 7 8
6 5 4 3 3 3 2 2 1 0 1 1 1 2 2 2 3 3 2 3 2 3 4 3 5 8 9 7 8 10 11 12 10 9 8 6 8 9 7 7 7 6 6
Wind_Direction
182 180 171 174 168 157 163 162 157 145 159 162 161 154 158 152 107 115 109 143 165 172 178 183 206 166 202 188 143 143 175 133 126 74 108 123 139 151 162 141 175 181 343
163 158 160 146 144 141 142 148 142 130 118 130 139 148 134 117 116 159 169 179 190 196 201 169 187 190 146 137 102 119 151 100 130 138 130 127 149 187 173 171 219 106 339
145 150 142 141 141 139 130 125 127 133 127 103 109 117 145 155 187 204 210 212 213 206 177 183 152 152 127 111 134 147 128 111 116 127 143 133 111 144 165 122 230 293 313
143 144 144 145 138 134 130 127 122 116 116 124 146 158 165 123 193 175 153 138 118 112 123 141 148 158 153 157 155 145 129 109 107 110 109 133 159 152 98 158 313 327 305
136 140 142 133 129 126 119 118 123 135 146 142 131 118 114 138 157 153 134 126 125 117 107 104 111 121 145 152 141 160 143 124 108 103 119 147 175 175 194 169 176 269 279
150 146 135 133 129 124 125 131 134 125 117 116 123 137 140 131 150 150 136 137 132 138 129 104 105 112 123 133 138 153 160 146 152 141 177 198 200 190 160 158 151 75 306
135 130 133 133 131 136 134 133 136 135 130 137 139 144 144 144 153 149 144 143 135 129 129 111 86 73 109 115 110 118 108 147 159 176 189 206 205 188 148 146 179 157 212
138 140 140 141 143 137 138 140 132 142 147 147 154 152 147 164 155 149 129 131 135 139 148 152 152 161 159 140 137 127 142 101 303 279 239 222 188 153 146 163 165 160 343
156 159 160 156 147 146 153 155 150 139 119 128 151 154 147 165 154 147 136 133 134 143 151 156 155 171 182 169 155 170 190 227 248 208 179 167 163 165 159 114 97 89 311
168 171 158 149 151 156 154 154 137 114 126 138 139 123 151 159 158 161 153 132 134 134 161 186 180 186 201 193 169 172 217 226 191 21 238 176 171 177 185 181 148 145 154
147 140 141 146 149 145 135 140 149 135 124 138 155 163 158 163 173 172 168 147 154 156 166 176 199 201 214 214 206 190 213 155 217 184 193 170 141 171 141 163 176 146 151
132 134 137 139 137 138 139 136 137 141 136 138 142 147 210 242 198 186 183 187 177 153 206 167 183 211 214 225 231 222 242 234 135 143 195 230 225 221 217 203 198 201 215
134 137 133 124 129 147 153 150 135 133 142 158 167 165 175 8 337 221 193 199 203 182 163 217 210 221 226 237 239 238 249 136 159 182 224 228 197 211 156 159 241 271 261
131 131 129 132 127 93 77 116 142 158 134 138 127 118 106 206 254 308 278 221 230 218 228 255 228 225 234 222 220 233 151 178 191 214 226 233 199 176 207 179 181 193 258
124 123 115 109 124 113 73 101 89 49 136 150 164 167 164 214 232 212 202 211 203 188 118 44 4 239 235 237 261 299 70 135 213 201 221 240 231 208 225 171 196 194 224
125 128 122 123 112 111 122 101 101 139 158 146 163 163 225 205 230 224 224 232 223 209 75 151 219 214 244 252 231 228 221 229 234 224 228 233 240 231 228 197 196 213 236
124 120 117 124 134 136 136 140 136 13 105 159 131 139 252 267 243 254 243 228 230 207 213 218 219 203 228 216 216 213 245 224 218 223 232 239 238 238 223 224 225 227 238
104 109 122 128 135 132 132 130 106 105 133 31 42 41 359 315 281 245 242 240 302 274 224 233 227 222 220 223 219 227 238 234 222 235 234 235 231 233 229 232 228 230 234
124 127 123 118 103 112 114 108 104 139 129 105 7 27 6 353 337 330 300 195 217 223 226 234 239 233 223 224 228 231 228 235 227 226 229 231 231 227 236 240 239 233 233
91 108 101 105 100 95 87 107 120 101 103 99 65 130 322 29 7 304 285 241 245 258 253 255 246 241 245 230 217 224 234 233 237 228 240 237 233 227 239 245 236 237 230
93 84 96 92 97 104 100 88 97 125 95 91 115 192 274 160 1 348 331 324 314 312 290 275 282 291 306 251 238 239 241 242 229 234 230 234 235 234 233 243 250 240 244
97 99 91 93 79 89 96 107 95 82 72 47 33 7 342 2 347 340 323 316 314 317 340 352 346 350 355 350 315 304 294 283 258 244 238 236 235 234 235 235 240 241 238
94 100 95 88 105 109 89 73 70 72 69 41 15 345 355 340 321 324 321 324 345 353 349 353 326 320 333 322 307 303 306 300 301 255 262 247 239 234 228 235 241 242 241
91 100 103 98 83 76 89 116 126 102 95 82 47 337 323 318 315 312 316 313 335 335 336 343 332 313 305 303 309 301 299 306 298 287 277 276 268 250 242 243 238 231 236
82 86 81 85 96 97 91 65 61 56 54 16 351 311 313 318 311 305 315 317 321 333 315 314 312 311 318 321 313 306 296 299 285 277 277 274 274 266 264 247 235 236 231
76 82 88 94 88 91 109 114 131 148 238 268 258 259 272 286 282 277 299 306 295 292 296 286 300 306 309 308 300 301 303 307 303 277 266 258 260 258 247 247 232 228 225